Location: São Paulo
(23.5507°S, 46.6334°W)
Time: 07:37:08
(UTC-03:00)

Transit 2A - Pass Details

Date: 24 February 2026
Orbit: 590 x 954 km, 66.7° (Epoch: 10 March)

Event Time Altitude Azimuth Distance (km) Brightness Sun altitude
Rises 07:52:50 0° 184° (S) 3,068 9.1 25.0°
Reaches altitude 10° 07:55:34 10° 168° (SSE) 2,208 8.6 25.6°
Maximum altitude 07:59:28 22° 117° (ESE) 1,617 9.1 26.5°
Drops below altitude 10° 08:03:37 10° 67° (ENE) 2,380 9.9 27.5°
Sets 08:06:41 0° 52° (NE) 3,375 10.1 28.2°
